Atikokan, Ontario

4:21 AM CDT on June 28, 2017 (GMT -0500)
Atikokan

Weather History for CWCH - September, 2013

Change the Weather History Date:

Friday, September 27, 2013

  Actual Average Record
Temperature  
Mean Temperature 66 °F -  
Max Temperature 76 °F 50 °F 81 °F (2014)
Min Temperature 55 °F 32 °F 41 °F (1999)
Growing Degree Days 16 (Base 50)    
Moisture  
Dew Point 57 °F    
Average Humidity 75    
Maximum Humidity 85    
Minimum Humidity 59    
Precipitation  
Precipitation 0.04 in 0.10 in - ()
Sea Level Pressure  
Sea Level Pressure 29.86 in    
Wind  
Wind Speed 4 mph ()    
Max Wind Speed 12 mph    
Max Gust Speed 18 mph    
Averages and records for this station are not official NWS values.
T = Trace of Precipitation, MM = Missing Value Source: Averaged Metar Reports

Daily Weather History Graph

Daily Weather History Graph

Search for Another Location

Airport or City:

Trip Planner

Search our weather history database for the weather conditions in past years. The results will help you decide how hot, cold, wet, or windy it might be!

Date:

Astronomy

Sep. 27, 2013 Rise Set
Actual Time 7:00 AM CDT 6:53 PM CDT
Civil Twilight 6:29 AM CDT 7:24 PM CDT
Nautical Twilight 5:52 AM CDT 8:01 PM CDT
Astronomical Twilight 5:14 AM CDT 8:38 PM CDT
Moon No Moon Rise 2:58 PM CDT (9/27)
Length of Visible Light 12h 55m
Length of Day
11h 52m
Last Quarter, 45% of the Moon is Illuminated
Sep 27
Last Quarter
Oct 4
New
Oct 11
First Quarter
Oct 18
Full
Oct 26
Last Quarter

Hourly Weather History & Observations

Time (CDT) Temp. Dew Point Humidity Pressure Visibility Wind Dir Wind Speed Gust Speed Precip Events Conditions
12:00 AM 58.1 °F 50.0 °F 74% - - SE 2.3 mph - N/A   Unknown
1:00 AM 57 °F 50 °F 71% 29.94 in - ENE 2.3 mph - -  
1:00 AM 56.8 °F 50.4 °F 79% - - ENE 2.3 mph - N/A   Unknown
2:00 AM 56.1 °F 51.4 °F 84% - - East 1.2 mph - N/A   Unknown
3:00 AM 61.7 °F 53.8 °F 75% 29.92 in - SSE 2.3 mph - N/A   Unknown
4:00 AM 61.9 °F 54.1 °F 76% 29.91 in - South 2.3 mph - N/A   Unknown
5:00 AM 62.1 °F 54.5 °F 76% 29.90 in - South 4.6 mph - N/A   Unknown
6:00 AM 62.6 °F 55.0 °F 76% 29.90 in - South 5.8 mph - N/A   Unknown
7:00 AM 62 °F 55 °F 71% 29.91 in - South 5.8 mph - -  
7:00 AM 62.4 °F 55.2 °F 77% 29.91 in - South 5.8 mph - N/A   Unknown
8:00 AM 63.3 °F 55.9 °F 77% 29.89 in - SSE 5.8 mph - N/A   Unknown
9:00 AM 66.0 °F 57.4 °F 74% 29.89 in - South 5.8 mph - N/A   Unknown
10:00 AM 66.9 °F 57.9 °F 73% 29.90 in - South 6.9 mph 17.3 mph N/A   Unknown
11:00 AM 68.9 °F 58.1 °F 68% 29.89 in - South 9.2 mph - N/A   Unknown
12:00 PM 65.3 °F 60.1 °F 83% 29.88 in - South 5.8 mph - N/A   Unknown
1:00 PM 66 °F 60 °F 77% 29.86 in - South 10.4 mph - -  
1:00 PM 66.2 °F 60.6 °F 82% 29.86 in - South 10.4 mph 17.3 mph 0.01 in   Unknown
2:00 PM 69.1 °F 59.9 °F 72% 29.83 in - South 5.8 mph - 0.01 in   Unknown
3:00 PM 75.4 °F 60.1 °F 59% 29.80 in - South 8.1 mph - 0.01 in   Unknown
4:00 PM 72.1 °F 59.2 °F 64% 29.79 in - SSW 9.2 mph 18.4 mph N/A   Unknown
5:00 PM 73.0 °F 57.9 °F 59% 29.81 in - South 11.5 mph 17.3 mph N/A   Unknown
6:00 PM 70.2 °F 58.5 °F 66% 29.82 in - South 5.8 mph 17.3 mph N/A   Unknown
7:00 PM 65 °F 61 °F 82% 29.82 in - SSE 3.5 mph - -  
7:00 PM 65.3 °F 60.8 °F 85% 29.82 in - South 2.3 mph - 0.02 in   Unknown
8:00 PM 64.9 °F 60.1 °F 84% 29.82 in - SSE 4.6 mph - N/A   Unknown
9:00 PM 66.4 °F 59.5 °F 79% 29.80 in - SSE 8.1 mph 17.3 mph N/A   Unknown
10:00 PM 68.2 °F 59.7 °F 74% 29.79 in - South 10.4 mph - 0.01 in   Unknown
11:00 PM 67.8 °F 60.6 °F 78% 29.78 in - South 5.8 mph - N/A   Unknown